Miscellaneous Local Product
Issued by NWS Hastings, NE

Home | Current Version | Previous Version | Text Only | Print | Product List | Glossary On
Versions: 1 2 3 4 5 6 7 8 9 10 11 12 13 14 15 16 17 18 19 20 21 22 23 24 25 26 27 28 29 30 31 32 33 34 35 36 37 38 39 40 41 42 43 44 45 46 47 48 49 50
960
AXUS43 KGID 200502
MISGRI

GID CWA HOURLY WEATHER ROUNDUP
NATIONAL WEATHER SERVICE HASTINGS NE
1100 PM CST FRI JAN 19 2018

NOTE: "FAIR" INDICATES FEW OR NO CLOUDS BELOW 12,000 FEET WITH NO
SIGNIFICANT WEATHER AND/OR OBSTRUCTIONS TO VISIBILITY.

...SOUTH CENTRAL NEBRASKA...

CITY           SKY/WX    TMP DP  RH WIND       PRES   REMARKS
GRAND ISLAND   CLOUDY    32  30  92 N7        29.76R WCI  26
KEARNEY        CLOUDY    35  30  82 N6        29.75R WCI  30
HASTINGS       CLOUDY    31  24  75 N3        29.75R
ORD            CLOUDY    36  31  82 NW8       29.76R WCI  30
YORK           CLOUDY    32  28  86 NW3       29.75S
AURORA         CLOUDY    32  26  79 N5        29.75R WCI  27
LEXINGTON      CLOUDY    32  29  90 NW7       29.77R WCI  26
HOLDREGE       CLOUDY    34  29  81 NE10      29.74S WCI  26
HEBRON         CLOUDY    31  26  83 CALM      29.76S

...NEBRASKA PANHANDLE...

CITY           SKY/WX    TMP DP  RH WIND       PRES   REMARKS
CHADRON        PTCLDY    28  26  92 CALM      29.77S
ALLIANCE       MOCLDY    27  26  96 S3        29.76S
SCOTTSBLUFF    MOCLDY    35  29  78 S3        29.77R
SIDNEY         CLOUDY    36  25  64 SE5       29.76R WCI  32

...WESTERN AND NORTH CENTRAL NEBRASKA...

CITY           SKY/WX    TMP DP  RH WIND       PRES   REMARKS
VALENTINE      CLEAR     30  27  88 W7        29.78R WCI  23
AINSWORTH      MOCLDY    32  30  94 W6        29.78R WCI  26
ONEILL         CLOUDY    34  32  92 NW6       29.77R WCI  29
BROKEN BOW     CLOUDY    38  31  76 W5        29.77R WCI  34
IMPERIAL       CLOUDY    32  28  85 N9        29.75S WCI  24
NORTH PLATTE   CLOUDY    33  29  85 N3        29.78S
MCCOOK         CLOUDY    32  25  75 NW5       29.74R WCI  27

...EASTERN NEBRASKA...

CITY           SKY/WX    TMP DP  RH WIND       PRES   REMARKS
NORFOLK        CLOUDY    35  30  82 W3        29.75R
SO SIOUX CITY  CLOUDY    33  30  88 W6        29.77R WCI  28
TEKAMAH        CLOUDY    34  26  72 CALM      29.76R
COLUMBUS       CLOUDY    28  25  88 CALM      29.77R
ALBION         CLOUDY    33  31  91 NW6       29.76S WCI  28
OMAHA EPPLEY   CLOUDY    34  27  75 S6        29.77R WCI  29
OFFUTT AFB     CLOUDY    27  25  91 CALM      29.77R
MILLARD        CLOUDY    31  27  84 CALM      29.77R
LINCOLN        CLOUDY    28  23  81 S3        29.77F
NEBRASKA CITY  CLOUDY    34  30  86 S9        29.77S WCI  27
BEATRICE       CLOUDY    32  28  85 CALM      29.78R
FALLS CITY     CLOUDY    33  26  75 S6        29.79S WCI  28

...NORTHERN KANSAS...

CITY           SKY/WX    TMP DP  RH WIND       PRES   REMARKS
GOODLAND       MOCLDY    35  20  54 NW3       29.71F
HILL CITY      CLOUDY    30  17  58 NW3       29.70R
NORTON         CLEAR     36  19  51 N9        29.70F WCI  29
PHILLIPSBURG   CLEAR     34  19  55 N3        29.72R
SMITH CENTER     N/A     32  19  59 E7        29.72S WCI  26
BELOIT         CLEAR     34  23  64 CALM      29.74S
HAYS           CLOUDY    38  17  42 S7        29.72S WCI  33
RUSSELL        CLOUDY    44  22  41 S14       29.71R
CONCORDIA      CLOUDY    43  25  49 CALM      29.75R
SALINA         CLOUDY    45  29  53 S15       29.76S
TOPEKA         CLOUDY    43  30  60 S6        29.83R



USA.gov is the U.S. government's official web portal to all federal, state and local government web resources and services.